Location: Bratsk-Energetik
(56.3300°N, 101.7600°E)
Time: 12:16:20
(UTC+08:00)

ISS - Pass Details

Date: 19 July 2018
Orbit: 402 x 408 km, 51.6° (Epoch: 23 July)

Event Time Altitude Azimuth Distance (km) Brightness Sun altitude
Exits shadow 01:20:41 10° 235° (SW) 1,467 -1.3 -12.7°
Reaches altitude 10° 01:20:41 10° 235° (SW) 1,466 -1.3 -12.7°
Maximum altitude 01:23:40 32° 170° (S) 718 -3.1 -12.7°
Drops below altitude 10° 01:26:40 10° 105° (ESE) 1,471 -1.1 -12.7°
Sets 01:28:52 0° 95° (E) 2,334 0.0 -12.7°
